GFSFLT2_sfc_dewp_000.txt.gz
Dewpoint
59 59 63 67 67 67 68 68 67 66 66 66 66 66 64 63 63 61 61 61 61 60 60 60 60 61 61 62 63 63 60 59
59 61 59 61 61 65 66 66 67 66 65 64 64 64 63 61 59 61 60 60 60 59 59 58 59 59 60 59 59 60 59 59
61 59 60 61 59 61 63 65 66 66 64 64 62 60 60 58 61 60 60 59 59 58 57 55 54 57 58 58 58 55 56 56
60 62 61 61 56 61 61 60 61 63 62 63 61 62 62 60 61 61 60 59 57 57 58 58 56 50 52 56 52 55 53 54
60 63 63 61 58 59 57 57 59 61 64 64 62 62 61 60 59 57 59 60 56 56 56 54 56 54 51 54 52 53 49 49
60 62 64 64 58 57 58 57 58 58 59 64 63 60 60 60 57 55 56 56 58 56 55 57 53 50 49 50 48 45 43 46
62 63 63 62 63 60 61 60 57 59 59 59 62 59 59 57 55 53 53 54 54 55 54 50 44 42 44 45 43 44 45 41
63 63 63 58 59 61 59 59 56 56 55 55 60 60 57 53 51 48 48 49 51 52 51 47 43 42 43 45 42 41 42 43
61 61 57 57 56 56 55 52 52 51 50 54 55 56 54 54 49 49 48 50 53 54 53 49 45 41 41 42 42 43 40 41
58 55 52 53 54 54 52 51 53 50 51 51 54 54 55 54 50 49 50 51 50 50 50 47 45 41 39 39 39 39 40 41
56 54 45 48 52 52 54 54 51 46 48 46 49 51 52 52 49 49 52 50 49 49 48 48 46 41 38 39 40 39 39 35
54 48 47 51 52 52 47 46 46 45 43 42 45 44 48 49 48 51 52 50 49 48 50 48 45 44 35 34 38 40 39 38
51 49 48 46 44 41 40 41 41 42 42 45 46 45 46 47 46 47 49 48 49 51 50 50 48 46 43 40 39 42 43 39
45 42 42 41 40 42 43 44 42 43 42 44 43 43 42 41 45 45 45 45 47 49 50 48 48 48 44 41 37 36 38 40
42 42 42 43 42 40 41 41 40 39 39 38 39 41 40 41 43 44 45 44 42 45 46 47 44 46 48 43 39 36 36 36
43 42 41 41 42 41 43 39 38 39 40 39 38 39 39 39 41 43 44 43 43 42 39 43 44 42 43 43 47 44 39 36
44 42 41 41 40 42 40 41 40 40 39 39 37 36 38 38 41 43 43 42 43 45 45 45 44 43 42 42 44 43 42 39
44 41 40 42 41 41 43 44 42 39 37 35 34 35 36 38 39 42 43 42 42 41 43 43 43 43 41 41 39 37 37 36
40 40 38 41 42 39 40 40 40 39 37 35 36 35 35 38 41 41 39 40 40 41 42 42 40 39 39 39 39 39 38 38
42 39 38 38 38 37 37 40 40 37 37 37 36 36 38 41 40 39 40 40 40 41 40 38 39 39 39 39 39 39 39 38

GFSFLT2_sfc_dewp_003.txt.gz
Dewpoint
55 58 64 68 67 68 68 68 67 67 66 66 66 65 64 63 62 61 61 60 60 59 59 59 59 60 61 61 62 63 59 55
57 57 57 59 62 66 67 67 67 66 65 64 64 64 63 61 61 61 60 59 59 58 58 57 57 59 59 59 60 62 58 54
56 56 57 57 55 61 64 65 66 66 64 64 63 60 59 59 61 61 60 59 59 57 56 55 56 58 58 58 59 54 53 52
58 59 59 57 50 56 56 55 58 59 59 60 57 59 59 57 61 62 62 61 59 59 58 59 59 50 50 57 52 51 50 51
57 63 61 57 54 54 53 53 55 57 60 61 60 59 59 57 57 57 59 61 55 56 56 54 55 52 49 50 49 50 46 45
57 61 61 59 55 53 54 53 54 54 56 59 59 56 57 57 54 53 53 51 54 54 52 54 53 48 46 47 47 44 37 39
55 60 58 55 58 57 58 58 55 56 56 55 56 55 57 54 52 49 48 48 49 50 50 49 47 44 42 44 43 43 44 41
55 58 57 53 54 57 58 56 54 53 52 52 55 55 56 52 50 48 47 47 47 48 49 49 46 43 42 43 44 41 41 44
56 57 55 52 53 54 52 48 49 49 49 51 51 52 53 54 50 49 48 50 52 50 50 49 48 45 42 42 43 44 42 42
53 54 51 50 52 50 49 48 50 48 48 49 51 52 52 53 50 50 50 52 49 49 47 47 46 45 46 41 40 41 42 42
52 55 46 48 52 49 50 50 48 44 45 44 47 48 49 50 49 51 56 51 53 52 50 51 48 47 45 44 43 41 43 37
50 52 45 47 49 50 45 45 45 44 43 44 46 46 49 50 49 53 53 51 51 52 55 51 52 50 44 43 47 44 43 44
47 49 50 46 44 43 41 41 42 43 43 45 47 46 46 47 45 47 49 48 51 53 52 52 51 51 50 49 48 48 47 43
49 47 43 41 41 42 44 45 43 43 43 44 43 44 44 43 45 44 46 44 50 51 52 49 49 50 48 47 44 45 45 45
43 43 43 43 42 40 41 41 41 39 40 41 42 45 41 41 42 43 47 46 44 49 48 48 44 46 50 46 42 40 43 43
43 42 41 41 44 41 43 40 39 41 42 41 40 41 38 36 38 41 45 45 46 45 40 47 46 43 44 40 45 44 43 42
45 43 41 42 41 43 42 43 44 44 43 43 43 40 38 36 38 41 44 41 44 46 46 43 41 42 40 41 43 42 43 42
45 41 39 42 42 43 45 46 45 40 39 37 36 37 36 38 36 40 43 43 41 42 42 43 43 41 40 40 39 39 38 38
41 40 39 41 43 43 40 39 40 40 38 37 37 35 35 38 40 41 38 39 39 41 44 42 41 40 40 39 38 38 38 38
44 42 40 39 41 40 41 40 39 38 38 37 36 36 37 38 39 39 39 38 41 42 39 40 39 39 38 37 38 38 39 38

GFSFLT2_sfc_dewp_006.txt.gz
Dewpoint
59 63 66 67 67 68 68 68 67 67 66 66 66 65 64 63 62 61 60 60 59 59 58 58 58 59 60 61 61 62 61 59
58 61 60 62 65 66 67 67 67 66 65 65 65 65 64 63 63 61 60 58 58 57 57 56 57 57 59 60 60 60 57 57
59 57 60 63 62 64 66 66 66 66 65 64 63 63 62 61 61 62 60 59 59 58 57 56 58 59 60 60 59 54 54 52
61 61 61 58 52 62 63 61 63 63 62 63 62 61 61 59 61 62 62 62 61 61 60 60 60 56 55 59 57 53 51 50
61 64 62 60 59 59 59 59 60 63 63 61 61 61 61 61 63 62 63 62 61 60 59 59 56 55 51 52 51 50 50 49
61 62 62 61 60 58 59 59 59 59 60 61 61 60 61 59 58 55 55 55 54 55 55 55 55 52 48 48 48 49 45 44
58 61 62 63 60 63 62 60 61 60 60 60 60 59 59 58 56 55 54 53 53 53 52 52 52 49 47 45 46 46 46 46
60 60 61 59 60 60 62 60 60 60 57 56 56 58 58 57 55 55 54 53 53 52 51 52 52 50 47 46 45 45 45 45
62 64 60 58 58 59 59 54 51 54 54 55 54 55 56 56 56 55 55 55 54 53 53 52 52 51 49 48 47 47 46 45
64 61 58 57 59 55 54 56 55 54 55 55 55 54 54 55 55 56 56 57 54 54 53 51 51 50 50 49 46 45 45 45
59 58 56 55 56 54 54 55 54 53 52 53 53 52 55 54 54 55 56 55 54 54 52 52 51 51 49 47 48 46 44 42
55 57 54 55 54 54 51 51 51 52 52 51 52 51 52 53 52 54 56 53 52 52 53 51 51 50 47 47 48 47 47 46
53 56 56 52 52 50 49 49 49 50 49 50 49 51 50 50 49 50 49 49 49 49 48 47 47 49 48 47 46 47 49 47
54 52 49 47 47 49 49 49 48 48 49 49 50 50 48 44 48 47 47 47 47 48 49 46 45 46 45 43 40 40 43 44
45 45 46 48 49 45 46 47 45 45 45 46 47 47 45 46 46 47 48 46 45 45 46 45 43 43 44 42 38 37 39 41
46 46 45 46 47 47 46 44 45 47 49 47 47 46 46 43 43 46 46 46 45 45 42 45 44 41 43 43 42 40 39 38
49 46 44 45 46 46 46 48 48 48 48 47 45 45 44 43 42 43 45 44 44 45 43 44 44 43 41 39 39 37 38 37
48 45 43 45 46 48 47 46 45 44 44 43 41 41 41 42 42 43 44 44 42 44 44 43 41 41 41 40 38 37 35 35
47 46 44 45 45 44 45 45 45 44 43 41 40 39 40 40 42 42 42 42 43 43 43 43 41 40 39 39 39 37 37 36
47 45 43 43 46 45 46 45 42 42 42 40 40 40 40 40 41 41 41 41 41 41 40 41 40 41 39 39 38 38 38 38

GFSFLT2_sfc_dewp_009.txt.gz
Dewpoint
65 66 67 67 66 66 67 67 67 67 66 66 66 65 65 64 63 61 60 59 57 57 57 58 58 59 60 61 60 61 58 58
62 63 64 64 65 66 66 66 65 65 65 65 65 64 64 64 63 62 61 59 57 56 57 58 58 59 59 60 60 60 52 56
59 59 61 62 64 65 66 66 65 64 64 64 63 63 62 62 62 62 61 61 60 60 59 59 59 59 59 60 60 56 54 54
56 57 61 59 58 63 63 63 64 64 63 63 62 62 62 60 61 62 61 61 61 62 61 60 60 57 53 58 57 55 50 50
59 56 55 55 58 61 61 61 62 62 61 58 59 58 60 59 60 61 60 62 60 60 60 59 58 56 52 48 48 46 48 45
58 58 55 56 53 56 55 57 56 61 59 59 58 58 55 55 54 55 57 59 59 57 55 55 54 54 50 46 45 45 46 44
58 57 57 56 57 58 57 57 56 55 57 56 55 56 54 54 54 52 51 51 50 50 49 50 51 50 48 45 43 45 45 45
61 59 58 57 57 58 57 56 54 57 54 54 55 54 54 54 52 53 51 52 52 50 49 49 50 51 49 47 43 43 44 45
61 64 62 57 56 55 56 47 49 51 52 51 52 52 51 52 52 53 54 53 53 51 52 52 50 50 50 49 47 45 45 44
59 60 61 59 55 52 51 51 51 51 52 53 52 52 53 52 51 51 53 54 53 52 52 51 51 50 50 49 49 47 45 45
56 57 61 57 51 51 52 48 48 49 49 50 49 52 51 50 50 50 51 52 52 52 52 52 51 50 48 46 47 47 47 45
56 59 57 53 53 51 50 48 48 48 48 47 49 48 48 47 46 47 48 48 48 47 47 47 47 47 45 45 48 48 49 48
55 55 53 52 48 48 47 45 45 46 45 48 46 45 45 45 45 47 46 46 45 45 46 44 44 46 45 42 44 45 44 44
50 49 49 47 46 47 46 46 46 45 45 46 47 47 45 44 44 45 45 44 43 42 43 44 43 44 41 41 39 39 41 42
43 43 43 45 46 42 42 42 43 44 46 46 46 47 44 41 42 43 44 44 42 41 43 42 42 42 42 41 39 38 38 40
43 42 41 43 44 43 42 43 44 46 47 46 46 43 41 41 41 41 43 42 41 43 43 43 43 41 42 40 40 38 36 32
43 42 41 43 42 42 45 44 44 45 45 41 40 40 40 40 41 41 41 43 41 43 42 41 41 40 40 39 38 36 37 35
41 41 41 42 43 45 43 40 42 42 40 39 39 39 40 39 40 40 41 41 42 42 42 40 40 41 41 40 39 36 35 33
43 43 42 43 43 43 42 41 40 40 39 38 38 40 38 40 40 40 40 40 41 40 40 40 40 39 37 37 38 37 37 36
43 42 42 43 45 42 41 41 41 41 39 38 39 39 39 39 40 40 40 40 40 39 38 38 39 39 39 39 38 38 38 37